Find Starlink 2147

NORAD ID: 47736 Int'l Des: 2021-017 Owner: SPXS Country: US Constellation: starlink operational
LEOCIRCULARSTARLINK_TYPE

リアルタイム位置

3D地球を読み込み中...

Starlink 2147について

説明を読み込み中...

次回通過

Passes for default location (London). Set your location on the main map for personalized predictions.

高度履歴

Loading altitude history...

軌道要素

1 47736U 21017Q 26123.54717003 .00060654 00000-0 14785-2 0 9997
2 47736 53.0744 306.7037 0001587 250.5895 109.4938 15.40344775286317
Epoch: May 3, 2026 • Age: 5 hours

現在のステータス

高度 448.8 km
速度 7.65 km/s
衛星直下点 38.23°N, 47.51°W
打ち上げ日 Mar 4, 2021
運用期間 5.1 years
タイプ internet

技術仕様

分類 Payload
質量 260.00 kg
乾燥質量 248.00 kg
総質量 260.00 kg
長さ 0.20 m
直径 2.80 m
スパン 9.00 m
形状 Box + pan
製造者 SPXS
バスタイプ Starlink
フェーズステータス In Orbit
所有者/国 SPXS/US

Most Searched